Hourly Weather Roundup
Issued by NWS Central Illinois

Home | Current Version | Previous Version | Text Only | Print | Product List | Glossary On
Versions: 1 2 3 4 5 6 7 8 9 10 11 12 13 14 15 16 17 18 19 20 21 22 23 24 25 26 27 28 29 30 31 32 33 34 35 36 37 38 39 40 41 42 43 44 45 46 47 48 49 50
000
NZUS43 KILX 170110
HWRILX

Area Weather Roundup
National Weather Service Lincoln IL
800 PM CDT WED AUG 16 2017

NOTE:  "FAIR" indicates few or no clouds below 12,000 feet, with
       no sigificant weather and/or obstructions to visibility.


CITY           SKY/WX    TMP DP  RH WIND       PRES   REMARKS
Bloomington    LGT RAIN  77  75  93 S8        29.88S
Champaign      CLOUDY    79  74  84 S9        29.90S HX  82
Danville       CLOUDY    77  73  87 S5        29.90R
Decatur        CLOUDY    79  74  84 SW17      29.87F HX  82
Effingham      RAIN      73  73 100 S7G16     29.95F
Flora          RAIN      74  72  93 W3        29.96S
Galesburg      CLOUDY    76  74  91 S8G16     29.83R
Jacksonville   CLOUDY    73  70  90 SW10G20   29.88R
Lacon          CLOUDY    78  74  87 S9        29.83F HX  80
Lawrenceville  CLOUDY    80  75  84 S7        29.93F HX  85
Litchfield     DRIZZLE   73  71  96 SE16G23   29.86F
$$


CITY           SKY/WX    TMP DP  RH WIND       PRES   REMARKS
Lincoln        CLOUDY    77  72  84 SW7G18    29.86S
Macomb         PTCLDY    79  71  77 S12G18    29.85R HX  82
Mattoon        LGT RAIN  78  77  96 S9        29.90S HX  81
Mt Carmel AP   MOCLDY    79  75  87 CALM      29.93F HX  83
Olney-Noble AP   N/A     74  72  93 W18G25    29.96R THUNDER
Paris AP       CLOUDY    78  75  90 S7        29.92F HX  80
Peoria         LGT RAIN  79  77  94 S12       29.84S HX  83
Pontiac        CLOUDY    78  77  96 CALM      29.87F HX  80
Rantoul        CLOUDY    80  76  89 S6        29.90F HX  85
Robinson       CLOUDY    77  75  93 S5        29.94S
Springfield    LGT RAIN  75  72  90 W8        29.86R
Taylorville    DRIZZLE   73  72  96 S16G25    29.84F
$$

...REGIONAL REPORTS...


CITY           SKY/WX    TMP DP  RH WIND       PRES   REMARKS
Chicago O`Hare CLOUDY    77  72  84 SE7       29.87S
Kankakee       NOT AVBL
Moline         CLOUDY    79  72  79 S8        29.79S HX  82
Mount Sterling CLOUDY    74  71  89 S13       29.86R
Mount Vernon   LGT RAIN  73  71  93 CALM      29.95F
Pittsfield     CLOUDY    73  71  92 S8        29.90R
Quincy         PTCLDY    75  68  78 S12       29.86R
Rockford       LGT RAIN  76  72  87 SE10      29.84F FOG
$$


CITY           SKY/WX    TMP DP  RH WIND       PRES   REMARKS
Burlington     PTCLDY    79  74  84 S12       29.80S HX  82
Cedar Rapids   PTCLDY    77  72  84 S6        29.75R
Des Moines     CLOUDY    81  64  56 SW15      29.74R HX  82
Kirksville     CLOUDY    77  71  82 S8        29.83R
Ottumwa        CLOUDY    82  70  66 S10       29.77R HX  86
St Louis       LGT RAIN  73  72  96 S12G18    29.90F
$$


CITY           SKY/WX    TMP DP  RH WIND       PRES   REMARKS
Terre Haute    CLOUDY    80  73  79 S7        29.93F HX  84
Evansville     PTCLDY    80  70  71 S5        29.95F HX  83
Indianapolis   MOCLDY    80  73  79 S7        29.94F HX  84
Lafayette      PTCLDY    80  72  76 S6        29.91S HX  84
Madison        LGT RAIN  72  70  93 SE14G22   29.83F
Milwaukee      LGT RAIN  73  70  90 E6        29.88F
$$






USA.gov is the U.S. government's official web portal to all federal, state and local government web resources and services.